SHIJIAN 6 04B (SJ-6 04B)

导读

实践六号04B卫星(SHIJIAN 6 04B,SJ-6 04B)是中国实践系列卫星中实践六号04组卫星之一,由中国航天科技集团下属上海航天技术研究院、中国空间技术研究院参与研制。于北京时间2010年10月6日在酒泉卫星发射中心由长征四号乙运载火箭发射升空,主要承担空间环境探测与相关技术试验任务,目前仍在轨服役,为我国空间科学研究积累了重要数据。

基本信息
目录编号:
37180
目录名称:
SHIJIAN 6 04B (SJ-6 04B)
国际标识:
2010-051B
轨道中心:
EARTH
卫星名称:
SHIJIAN 6 04B (SJ-6 04B)
卫星全名:
--
卫星状态:
在轨 (已飞行5819 天)
发射日期:
2010-10-06 UTC
国别 :
中国 (CN)
星等 :
--
该卫星已列入 空间交会检测服务 Space Conjunction Data Service (SCDS) ,当前飞行风险评估等级: 无高风险
轨道信息
数据来源 国际轨道数据
星历时间: 2026-09-11T07:28:07+0800
10小时前
查看轨道信息
半长轴: 6946.679km
偏心率: 0.0013056
轨道倾角: 97.876°
近地点辐角 38.698°
升交点赤经 260.306°
平近点角 321.517°
近地点: 559.472km
远地点: 577.612km
周期: 96.034分钟
每日圈数: 14.994671
详细信息
使用方式:
暂无
2D轨道图
3D轨道图
轨道高度分析图
轨道倾角分析图
轨道综合分析图
查看轨道综合分析图
交会数据列表
事件ID 空间交会对象 最接近时刻(TCA) 交会距离 交会风险概率(CRP) 交会风险指数(CRI) 操作
CDM_260912-203903-718004-888125
2026-09-12T
20:39:38+0000
1.206 km
极远距离
1.266651E-5 中风险 0.57
与全量物体交会距离演化趋势
与全量物体交会风险概率演化趋势